Location: Newark
(45.2500°N, 7.5833°E)
Time: 16:14:47
(UTC+00:00)

SR - Pass Details

Date: 04 February 2020
Orbit: 575 x 881 km, 66.7° (Epoch: 17 February)

Event Time Altitude Azimuth Distance (km) Brightness Sun altitude
Exits shadow 03:05:25 19° 94° (E) 1,749 ? -39.1°
Drops below altitude 10° 03:07:04 10° 107° (ESE) 2,240 ? -38.8°
Sets 03:09:34 0° 117° (ESE) 3,105 ? -38.4°
